Content
SEND FEEDBACK

Daily
Averages
Monthly
Summary
United States of America

EL PASO, TEXAS


Home > North America > United States > Texas
Elevation: 3918 feet     Latitude: 31 48N     Longitude: 106 24W

WEATHER
 
SELECT A DAY
Number of Records: 174,549;   Date Range: 1/1/95 - 10/19/14
 
SHARE

PRINT THIS DATA

[ ← Previous Day ]
WEATHER ALMANAC - JULY 6, 2013
[ Next Day → ]
[ °C ]   °F
Weather ElementAverageHighLow
Temperature90.6 °F100.9 °F (4:51 pm)75.9 °F (5:51 am)
Dewpoint50.7 °F57 °F (2:51 am)46 °F (5:51 pm)
Humidity27.1 %50 % (5:51 am)15 % (5:51 pm)
Barometer29.66 in29.88 in (11:35 pm)29.55 in (6:51 pm)
Wind Speed6.4 mph13.8 mph (10:51 pm)
Wind Gust21.9 mph (1:51 pm)
Weather ElementAverage
Visibility10 mi
Wind DirectionSE (131.2 °)

Weather ElementTotal
Precipitation---
Cooling Degree Days23.4 (Base 65)
Growing Degree Days38.4 (Base 50)
Averaged from 25 records on July 6, 2013
WEATHER CONDITIONS BREAKOUT
WIND DIRECTION BREAKOUT
WEATHER BY HOUR - JULY 6, 2013
[ °C ]   °F
Local TimeTemperatureDewpointHumidityBarometerVisibilityWind DirectionWind SpeedGust SpeedPrecipitationEventsConditions
1:51 AM82.9 °F55.9 °F39 %29.66 in10.0 miSSW (210°)8.1 mphMostly Cloudy
2:51 AM81.0 °F57.0 °F44 %29.66 in10.0 miSW (220°)6.9 mphScattered Clouds
3:51 AM82.9 °F55.0 °F38 %29.65 in10.0 miWNW (290°)6.9 mphScattered Clouds
4:51 AM79.0 °F55.9 °F45 %29.66 in10.0 miCalmScattered Clouds
5:51 AM75.9 °F55.9 °F50 %29.67 in10.0 miEast (80°)6.9 mphScattered Clouds
6:51 AM81.0 °F53.1 °F38 %29.68 in10.0 miNNW (340°)4.6 mphScattered Clouds
7:51 AM84.0 °F52.0 °F33 %29.70 in10.0 miNorth (10°)11.5 mphMostly Cloudy
8:51 AM84.0 °F52.0 °F33 %29.71 in10.0 miNE (50°)9.2 mphMostly Cloudy
9:51 AM87.1 °F53.1 °F31 %29.70 in10.0 miNorth (10°)5.8 mphScattered Clouds
10:51 AM89.1 °F52.0 °F28 %29.70 in10.0 miVariable3.5 mphScattered Clouds
11:51 AM91.9 °F51.1 °F25 %29.68 in10.0 miVariable3.5 mphScattered Clouds
12:51 PM95.0 °F52.0 °F23 %29.66 in10.0 miWest (270°)6.9 mphScattered Clouds
1:51 PM98.1 °F51.1 °F20 %29.63 in10.0 miWSW (250°)11.5 mph21.9 mphScattered Clouds
2:51 PM99.0 °F50.0 °F19 %29.62 in10.0 miWest (260°)8.1 mphScattered Clouds
3:51 PM100.0 °F48.0 °F17 %29.58 in10.0 miVariable3.5 mphScattered Clouds
4:51 PM100.9 °F46.9 °F16 %29.57 in10.0 miWest (270°)8.1 mphScattered Clouds
5:51 PM100.9 °F46.0 °F15 %29.56 in10.0 miNW (320°)5.8 mphMostly Cloudy
6:51 PM98.1 °F46.0 °F17 %29.55 in10.0 miEast (90°)4.6 mphMostly Cloudy
7:51 PM97.0 °F46.9 °F18 %29.56 in10.0 miCalmOvercast
8:51 PM96.1 °F48.0 °F19 %29.59 in10.0 miNNE (20°)3.5 mphMostly Cloudy
9:51 PM93.0 °F46.9 °F20 %29.61 in10.0 miEast (90°)8.1 mphMostly Cloudy
10:11 PM93.2 °F48.2 °F21 %29.87 in10.0 miEast (100°)8.1 mphThunderstormThunderstorm
10:51 PM93.0 °F48.0 °F21 %29.63 in10.0 miSE (130°)13.8 mphThunderstormThunderstorm
11:35 PM91.4 °F48.2 °F23 %29.88 in10.0 miSE (130°)6.9 mphMostly Cloudy
11:51 PM90.0 °F48.0 °F24 %29.62 in10.0 miSE (140°)4.6 mphMostly Cloudy
Hourly data recorded from KELP, located miles away from El Paso, Texas







STORIES FROM OUR PARTNERS